Tracking 22879 objects as of 21-Apr-2021
HD Live streaming from Space Station
objects crossing your sky now

DELTA 1 DEB

Track DELTA 1 DEB now!
10-day predictions


NORAD ID: 7058
Int'l Code: 1973-086BA
Perigee: 1,452.7 km
Apogee: 1,463.0 km
Inclination: 101.7 °
Period: 114.9 minutes
Semi major axis: 7828 km
RCS: 0.0607 m2 (small)
Launch date: November 6, 1973
Source: United States (US)
Launch site: AIR FORCE WESTERN TEST RANGE (AFWTR)

Note: This is SATELLITE DEBRIS
aabbcc
Your satellite tracking list
Your tracking list is empty




NASA's NSSDC Master Catalog

Two Line Element Set (TLE):
1 07058U 73086BA  21111.53882398 -.00000002  00000-0  26640-3 0  9990
2 07058 101.6603  90.9553 0006637 113.8994   9.6840 12.53303260163177
Source of the keplerian elements: AFSPC